K5FEP Weather Reports


time (UTC)temp
C
wind
direction
speed
KPH
gust
KPH
rain 1hr
cm
rain 24hr
cm
rain mn
cm
humidity
%
barometer
mb
20260508025629 8 226 0.0 0.0 0.00 0.38 0.38 97 1012.1
20260508025126 9 226 0.0 0.0 0.00 0.38 0.38 97 1012.3
20260508024622 9 226 0.0 0.0 0.00 0.38 0.38 97 1012.2
20260508024120 9 226 0.0 0.0 0.00 0.38 0.38 97 1012.4
20260508023615 10 226 0.0 0.0 0.00 0.38 0.38 97 1012.1
20260508023113 10 226 0.0 0.0 0.00 0.38 0.38 97 1011.9
20260508022609 10 226 0.0 0.0 0.00 0.38 0.38 97 1011.8
20260508022107 10 226 0.0 0.0 0.00 0.38 0.38 97 1012.0
20260508021602 10 226 0.0 0.0 0.00 0.38 0.38 97 1011.7
20260508021058 10 226 0.0 0.0 0.00 0.38 0.38 97 1011.5
20260508020556 10 226 0.0 0.0 0.00 0.38 0.38 97 1011.4
20260508020053 10 226 0.0 0.0 0.00 0.38 0.38 97 1011.4
20260508015551 10 226 0.0 0.0 0.00 0.38 0.38 97 1011.2
20260508015048 11 225 0.0 0.0 0.00 0.38 0.38 97 1011.2
20260508014543 11 226 0.0 0.0 0.00 0.38 0.38 96 1011.3
20260508014040 11 226 0.0 0.0 0.00 0.38 0.38 96 1011.1
20260508013536 11 226 0.0 0.0 0.00 0.38 0.38 96 1011.3
20260508013033 11 226 0.0 0.0 0.00 0.38 0.38 96 1011.0
20260508012531 11 226 0.0 0.0 0.00 0.38 0.38 96 1011.1
20260508012028 11 226 0.0 0.0 0.00 0.38 0.38 96 1010.9
20260508011526 11 226 0.0 0.0 0.00 0.38 0.38 96 1011.1
20260508011023 11 226 0.0 0.0 0.00 0.38 0.38 95 1011.1
20260508010520 11 226 0.0 0.0 0.00 0.38 0.38 95 1010.9
20260508010018 11 226 0.0 0.0 0.00 0.38 0.38 95 1011.1
20260508005514 12 226 0.0 0.0 0.00 0.38 0.38 95 1011.2
20260508005011 12 226 0.0 0.0 0.00 0.38 0.38 94 1011.1
20260508004506 12 226 0.0 0.0 0.00 0.38 0.38 94 1010.9
20260508004004 12 226 0.0 0.0 0.00 0.38 0.38 94 1011.0
20260508003500 12 226 0.0 0.0 0.00 0.38 0.38 94 1011.0
20260508002957 12 226 0.0 0.0 0.00 0.38 0.38 94 1011.1
20260508002453 12 226 0.0 0.0 0.00 0.38 0.38 94 1011.1
20260508001950 12 226 0.0 0.0 0.00 0.38 0.38 94 1010.9
20260508001446 12 226 0.0 0.0 0.00 0.38 0.38 93 1010.8
20260508000943 12 226 0.0 0.0 0.00 0.38 0.38 94 1010.7
20260508000438 12 226 0.0 0.0 0.00 0.38 0.38 94 1010.4
20260507235936 12 235 1.6 1.6 0.00 0.38 0.38 93 1010.4
20260507235432 12 258 0.0 1.6 0.00 0.38 0.38 93 1010.4
20260507234930 12 228 0.0 0.0 0.00 0.38 0.38 93 1010.5
20260507234427 12 229 0.0 1.6 0.00 0.38 0.38 93 1010.2
20260507233923 12 233 0.0 1.6 0.00 0.38 0.38 93 1010.1
20260507233420 12 234 0.0 1.6 0.00 0.38 0.38 93 1010.2
20260507232919 12 247 0.0 0.0 0.00 0.38 0.38 92 1010.1
20260507232415 12 241 0.0 1.6 0.00 0.38 0.38 92 1010.1
20260507231912 12 226 0.0 1.6 0.00 0.38 0.38 93 1010.0
20260507231408 12 275 0.0 1.6 0.00 0.38 0.38 93 1009.9
20260507230905 12 264 0.0 0.0 0.00 0.38 0.38 94 1009.9
20260507230402 12 262 0.0 0.0 0.00 0.38 0.38 93 1009.8
20260507225903 12 253 0.0 0.0 0.00 0.38 0.38 93 1010.1
20260507225359 12 227 0.0 1.6 0.00 0.38 0.38 92 1010.0
20260507224855 12 230 1.6 1.6 0.00 0.38 0.38 92 1010.0
20260507224351 12 225 0.0 3.2 0.00 0.38 0.38 92 1010.1
20260507223847 12 217 1.6 4.8 0.00 0.38 0.38 91 1010.0
20260507223344 13 233 1.6 3.2 0.00 0.38 0.38 91 1010.0
20260507222841 13 237 0.0 0.0 0.00 0.38 0.38 92 1010.2
20260507222337 13 245 0.0 3.2 0.00 0.38 0.38 91 1010.0
20260507221835 13 286 1.6 3.2 0.00 0.38 0.38 91 1010.0
20260507221331 13 276 0.0 0.0 0.00 0.38 0.38 92 1009.8
20260507220827 13 225 0.0 0.0 0.00 0.38 0.38 92 1009.9
20260507220326 13 231 1.6 3.2 0.00 0.38 0.38 91 1009.7
20260507215821 13 217 3.2 3.2 0.00 0.38 0.38 92 1009.7
20260507215319 13 228 1.6 1.6 0.00 0.38 0.38 92 1009.8
20260507214816 13 256 0.0 3.2 0.00 0.38 0.38 92 1009.7
20260507214314 13 224 0.0 3.2 0.00 0.38 0.38 93 1009.7
20260507213808 12 241 0.0 1.6 0.00 0.38 0.38 93 1009.6
20260507213305 12 226 0.0 3.2 0.00 0.38 0.38 93 1009.5
20260507212802 12 193 3.2 4.8 0.00 0.38 0.38 93 1010.0
20260507212258 12 243 0.0 1.6 0.00 0.38 0.38 93 1009.7
20260507211755 12 227 1.6 1.6 0.00 0.38 0.38 93 1009.7
20260507211251 12 214 3.2 4.8 0.00 0.38 0.38 93 1009.4
20260507210748 12 239 1.6 3.2 0.00 0.38 0.38 93 1009.5
20260507210245 12 244 0.0 1.6 0.00 0.38 0.38 94 1009.6
20260507205742 12 251 0.0 0.0 0.00 0.38 0.38 94 1009.8
20260507205239 12 253 0.0 0.0 0.00 0.38 0.38 93 1009.5
20260507204734 12 251 1.6 3.2 0.00 0.38 0.38 92 1009.7
20260507204233 13 229 4.8 4.8 0.00 0.38 0.38 92 1009.6
20260507203730 13 222 3.2 4.8 0.00 0.38 0.38 92 1009.8
20260507203227 13 234 0.0 1.6 0.00 0.38 0.38 94 1009.8
20260507202724 13 238 0.0 1.6 0.00 0.38 0.38 94 1009.7
20260507202220 12 208 1.6 4.8 0.00 0.38 0.38 93 1009.6
20260507201714 12 244 1.6 3.2 0.00 0.38 0.38 93 1010.0
20260507201212 13 255 1.6 1.6 0.13 0.38 0.38 93 1009.9
20260507200708 13 262 0.0 1.6 0.13 0.38 0.38 93 1010.0
20260507200204 12 218 0.0 1.6 0.00 0.36 0.36 93 1010.3
20260507195701 13 206 1.6 4.8 0.00 0.36 0.36 93 1009.9
20260507195158 13 219 0.0 3.2 0.00 0.36 0.36 93 1010.0
20260507194655 13 246 0.0 1.6 0.00 0.36 0.36 93 1010.0
20260507194150 13 239 1.6 1.6 0.00 0.36 0.36 93 1009.7
20260507193647 13 242 1.6 4.8 0.00 0.36 0.36 92 1010.1
20260507193145 12 215 1.6 1.6 0.00 0.36 0.36 92 1010.0
20260507192640 12 251 3.2 3.2 0.18 0.36 0.36 92 1010.2
20260507192138 12 135 1.6 4.8 0.18 0.36 0.36 92 1010.5
20260507191633 13 280 0.0 3.2 0.00 0.33 0.33 93 1010.1
20260507191130 13 224 0.0 3.2 0.00 0.33 0.33 92 1009.9
20260507190627 13 225 0.0 1.6 0.00 0.33 0.33 93 1010.3
20260507190126 13 257 1.6 1.6 0.00 0.33 0.33 92 1010.0
20260507185624 13 244 1.6 1.6 0.00 0.33 0.33 91 1009.8
20260507185120 13 228 3.2 3.2 0.18 0.33 0.33 91 1009.9
20260507184619 13 215 1.6 3.2 0.00 0.30 0.30 91 1009.8
20260507184116 13 254 1.6 3.2 0.00 0.30 0.30 90 1010.0
20260507183612 12 265 1.6 3.2 0.00 0.30 0.30 91 1010.1
20260507183109 12 219 1.6 3.2 0.00 0.30 0.30 92 1010.2
20260507182605 12 246 0.0 4.8 0.00 0.30 0.30 91 1010.3
20260507182101 13 255 0.0 1.6 0.00 0.30 0.30 92 1010.1
20260507181559 13 199 3.2 3.2 0.00 0.30 0.30 92 1010.2
20260507181055 13 223 1.6 4.8 0.00 0.30 0.30 92 1010.3
20260507180551 13 250 3.2 4.8 0.00 0.30 0.30 92 1010.2
20260507180048 12 241 1.6 1.6 0.00 0.30 0.30 93 1010.2
20260507175544 12 245 1.6 9.7 0.00 0.30 0.30 92 1010.1
20260507175042 13 212 4.8 6.4 0.00 0.30 0.30 92 1010.0
20260507174539 13 197 3.2 9.7 0.00 0.30 0.30 92 1010.0
20260507174037 13 260 1.6 6.4 0.00 0.30 0.30 92 1009.9
20260507173533 12 211 3.2 9.7 0.00 0.30 0.30 92 1010.0
20260507173031 12 210 6.4 9.7 0.00 0.30 0.30 92 1009.8
20260507172526 12 199 6.4 12.9 0.00 0.30 0.30 91 1010.1
20260507172024 12 236 3.2 11.3 0.00 0.30 0.30 92 1009.6
20260507171519 12 197 6.4 6.4 0.00 0.30 0.30 92 1009.8
20260507171017 12 206 8.0 11.3 0.00 0.30 0.30 92 1009.9
20260507170513 12 198 4.8 11.3 0.00 0.30 0.30 92 1009.9
20260507170010 12 208 6.4 9.7 0.00 0.30 0.30 93 1010.1
20260507165506 12 218 3.2 11.3 0.00 0.30 0.30 92 1010.1
20260507165002 12 227 3.2 9.7 0.00 0.30 0.30 93 1010.2
20260507164459 12 214 6.4 9.7 0.00 0.30 0.30 94 1010.2
20260507163955 12 207 3.2 9.7 0.00 0.30 0.30 94 1010.6
20260507163453 12 242 0.0 4.8 0.13 0.30 0.30 94 1010.5
20260507162950 12 217 8.0 14.5 0.13 0.30 0.30 94 1010.3
20260507162445 12 199 3.2 6.4 0.18 0.28 0.28 94 1010.2
20260507161943 12 236 6.4 11.3 0.18 0.28 0.28 93 1010.3
20260507161439 12 226 4.8 4.8 0.00 0.25 0.25 93 1010.6
20260507160936 12 199 3.2 6.4 0.00 0.25 0.25 93 1010.5
20260507160432 12 260 3.2 4.8 0.13 0.25 0.25 93 1010.6
20260507155927 12 216 1.6 4.8 0.13 0.25 0.25 93 1010.7
20260507155424 12 286 3.2 4.8 0.00 0.23 0.23 92 1010.6
20260507154921 12 224 3.2 9.7 0.00 0.23 0.23 92 1010.6
20260507154417 12 208 4.8 4.8 0.00 0.23 0.23 92 1010.9
20260507153915 12 227 4.8 12.9 0.00 0.23 0.23 91 1011.0
20260507153411 12 224 3.2 9.7 0.00 0.23 0.23 90 1011.0
20260507152908 12 194 9.7 11.3 0.00 0.23 0.23 90 1011.0
20260507152404 12 217 1.6 4.8 0.00 0.23 0.23 90 1010.6
20260507151900 12 200 3.2 6.4 0.00 0.23 0.23 90 1010.5
20260507151356 12 193 1.6 11.3 0.00 0.23 0.23 89 1010.3
20260507150854 12 217 6.4 6.4 0.00 0.23 0.23 89 1010.5
20260507150350 13 226 9.7 12.9 0.00 0.23 0.23 89 1010.3
20260507145846 13 209 3.2 11.3 0.00 0.23 0.23 89 1010.3
20260507145343 13 192 6.4 11.3 0.00 0.23 0.23 88 1010.2
20260507144840 13 170 3.2 12.9 0.00 0.23 0.23 89 1010.0
20260507144337 13 232 3.2 11.3 0.00 0.23 0.23 90 1009.9
20260507143834 13 220 9.7 12.9 0.00 0.23 0.23 90 1010.1
20260507143331 13 237 4.8 9.7 0.00 0.23 0.23 90 1009.9
20260507142827 13 243 4.8 9.7 0.00 0.23 0.23 91 1010.0
20260507142323 13 226 6.4 11.3 0.00 0.23 0.23 90 1010.0
20260507141820 13 197 12.9 16.1 0.00 0.23 0.23 89 1010.2
20260507141317 13 222 6.4 20.9 0.00 0.23 0.23 90 1010.2
20260507140813 14 235 3.2 9.7 0.00 0.23 0.23 91 1009.9
20260507140310 15 189 6.4 9.7 0.00 0.23 0.23 91 1009.5
20260507135808 15 229 9.7 11.3 0.00 0.23 0.23 90 1009.2
20260507135306 16 212 9.7 24.1 0.00 0.23 0.23 87 1009.1
20260507134802 18 189 3.2 4.8 0.00 0.23 0.23 94 1008.7
20260507134258 18 260 0.0 1.6 0.00 0.23 0.23 94 1009.1
20260507133754 18 206 1.6 3.2 0.00 0.23 0.23 94 1009.2
20260507133250 18 267 0.0 0.0 0.00 0.23 0.23 95 1009.5
20260507132748 18 256 0.0 0.0 0.00 0.23 0.23 95 1009.5
20260507132245 18 242 1.6 1.6 0.00 0.23 0.23 96 1009.6
20260507131742 18 241 0.0 1.6 0.00 0.23 0.23 96 1009.7
20260507131239 18 220 0.0 0.0 0.00 0.23 0.23 96 1009.8
20260507130735 18 220 0.0 0.0 0.00 0.23 0.23 96 1009.8
20260507130233 18 227 0.0 0.0 0.00 0.23 0.23 96 1009.4
20260507125731 18 8 1.6 1.6 0.00 0.23 0.23 96 1009.5
20260507125229 18 58 0.0 1.6 0.00 0.23 0.23 96 1009.4
20260507124725 18 8 1.6 1.6 0.18 0.23 0.23 96 1009.4
20260507124222 18 329 1.6 1.6 0.18 0.23 0.23 97 1009.2
20260507123721 17 305 0.0 1.6 0.00 0.20 0.20 97 1009.1
20260507123218 17 220 0.0 0.0 0.13 0.20 0.20 97 1009.3
20260507122713 17 220 0.0 0.0 0.13 0.20 0.20 97 1009.6
20260507122209 17 220 0.0 0.0 0.00 0.18 0.18 97 1009.7
20260507121705 17 221 0.0 0.0 0.00 0.18 0.18 97 1009.7
20260507121201 17 282 0.0 0.0 0.00 0.18 0.18 97 1009.5
20260507120657 17 282 0.0 0.0 0.00 0.18 0.18 97 1009.5
20260507120154 17 282 0.0 0.0 0.00 0.18 0.18 97 1009.4
20260507115651 17 282 0.0 0.0 0.00 0.18 0.18 97 1009.5
20260507115146 17 282 0.0 0.0 0.00 0.18 0.18 97 1009.4
20260507114642 17 283 0.0 0.0 0.00 0.18 0.18 97 1009.4
20260507114140 17 235 0.0 0.0 0.00 0.18 0.18 97 1009.6
20260507113637 17 297 0.0 0.0 0.00 0.18 0.18 97 1009.4
20260507113133 17 297 0.0 0.0 0.00 0.18 0.18 97 1009.5
20260507112632 17 297 0.0 0.0 0.00 0.18 0.18 97 1009.2
20260507112128 17 298 0.0 0.0 0.00 0.18 0.18 96 1009.6
20260507111625 17 298 0.0 0.0 0.00 0.18 0.18 97 1009.9
20260507111122 17 298 0.0 0.0 0.00 0.18 0.18 96 1009.7
20260507110618 17 297 0.0 0.0 0.00 0.18 0.18 96 1009.5
20260507110115 17 297 0.0 0.0 0.00 0.18 0.18 96 1009.3
20260507105612 17 297 0.0 0.0 0.00 0.18 0.18 96 1009.5
20260507105107 17 297 0.0 0.0 0.00 0.18 0.18 96 1009.4
20260507104606 17 297 0.0 1.6 0.00 0.18 0.18 96 1009.3
20260507104101 17 297 0.0 0.0 0.00 0.18 0.18 96 1009.1
20260507103558 17 297 0.0 0.0 0.00 0.18 0.18 96 1009.3
20260507103055 17 297 0.0 0.0 0.00 0.18 0.18 96 1009.1
20260507102551 17 297 0.0 0.0 0.00 0.18 0.18 96 1008.5
20260507102047 17 298 0.0 1.6 0.00 0.18 0.18 96 1008.8
20260507101543 17 305 0.0 0.0 0.18 0.18 0.18 96 1008.4
20260507101039 17 305 0.0 0.0 0.18 0.18 0.18 96 1008.8
20260507100537 17 305 0.0 0.0 0.00 0.15 0.15 96 1009.3
20260507100035 17 305 0.0 0.0 0.00 0.15 0.15 96 1009.1
20260507095532 17 271 0.0 0.0 0.00 0.15 0.15 96 1009.2
20260507095029 17 305 0.0 0.0 0.00 0.15 0.15 96 1009.3
20260507094525 17 292 0.0 1.6 0.00 0.15 0.15 96 1009.3
20260507094022 17 286 0.0 0.0 0.00 0.15 0.15 96 1009.2
20260507093519 17 286 0.0 0.0 0.00 0.15 0.15 96 1009.6
20260507093018 17 286 0.0 0.0 0.00 0.15 0.15 96 1009.6
20260507092514 17 285 0.0 0.0 0.00 0.15 0.15 96 1009.4
20260507092011 17 285 0.0 0.0 0.00 0.15 0.15 96 1009.3
20260507091508 17 285 0.0 0.0 0.00 0.15 0.15 96 1009.1
20260507091003 17 285 0.0 0.0 0.00 0.15 0.15 96 1009.2
20260507090459 17 285 0.0 0.0 0.00 0.15 0.15 96 1009.4
20260507085956 17 285 0.0 0.0 0.00 0.15 0.15 95 1009.3
20260507085454 17 286 0.0 0.0 0.00 0.15 0.15 95 1009.4
20260507084950 17 288 0.0 0.0 0.00 0.15 0.15 95 1009.1
20260507084447 17 278 0.0 0.0 0.00 0.15 0.15 95 1009.3
20260507083944 17 278 0.0 0.0 0.00 0.15 0.15 95 1009.2
20260507083440 18 278 0.0 0.0 0.00 0.15 0.15 95 1009.1
20260507082937 18 278 0.0 0.0 0.00 0.15 0.15 95 1008.9
20260507082433 18 278 0.0 0.0 0.13 0.15 0.15 95 1009.1
20260507081930 18 280 0.0 0.0 0.13 0.15 0.15 95 1009.1
20260507081426 18 284 0.0 0.0 0.00 0.13 0.13 95 1009.0
20260507080923 18 186 1.6 3.2 0.00 0.13 0.13 95 1009.1
20260507080419 18 70 1.6 3.2 0.00 0.13 0.13 95 1009.0
20260507075914 18 82 3.2 4.8 0.00 0.13 0.13 95 1009.1
20260507075411 18 172 1.6 3.2 0.00 0.13 0.13 95 1008.8
20260507074908 18 200 0.0 4.8 0.00 0.13 0.13 96 1008.7
20260507074404 18 59 1.6 4.8 0.00 0.13 0.13 96 1008.1
20260507073902 17 291 1.6 3.2 0.00 0.13 0.13 96 1008.1
20260507073358 17 318 1.6 3.2 0.00 0.13 0.13 96 1008.2
20260507072855 17 290 0.0 3.2 0.00 0.13 0.13 96 1008.3
20260507072353 18 292 0.0 0.0 0.00 0.13 0.13 96 1008.6
20260507071850 18 280 1.6 1.6 0.00 0.13 0.13 95 1008.9
20260507071347 17 288 0.0 1.6 0.00 0.13 0.13 95 1008.9
20260507070843 17 298 0.0 1.6 0.00 0.13 0.13 95 1008.5
20260507070341 17 300 0.0 1.6 0.00 0.13 0.13 95 1008.8
20260507065837 18 271 0.0 0.0 0.00 0.13 0.13 95 1008.5
20260507065334 18 271 0.0 1.6 0.00 0.13 0.13 95 1008.8
20260507064831 18 195 0.0 0.0 0.00 0.13 0.13 95 1008.8
20260507064330 18 192 0.0 0.0 0.00 0.13 0.13 95 1009.3
20260507063827 18 111 0.0 0.0 0.00 0.13 0.13 95 1009.7
20260507063324 18 347 0.0 0.0 0.00 0.13 0.13 94 1009.6
20260507062821 18 73 1.6 1.6 0.00 0.13 0.13 94 1009.7
20260507062318 18 39 1.6 1.6 0.00 0.13 0.13 94 1009.9
20260507061816 18 355 1.6 1.6 0.00 0.13 0.13 94 1009.7
20260507061313 18 10 0.0 1.6 0.00 0.13 0.13 94 1009.9
20260507060812 18 32 1.6 3.2 0.00 0.13 0.13 94 1010.1
20260507060308 18 69 3.2 6.4 0.00 0.13 0.13 94 1010.3
20260507055805 18 55 3.2 4.8 0.18 0.13 0.13 94 1010.2
20260507055300 18 33 1.6 4.8 0.18 0.13 0.13 94 1010.3
20260507054756 18 125 3.2 4.8 0.00 0.10 0.10 95 1010.3
20260507054253 18 87 3.2 4.8 0.00 0.10 0.10 95 1010.3
20260507053750 18 56 3.2 6.4 0.00 0.10 0.10 95 1010.5
20260507053248 18 37 1.6 3.2 0.00 0.10 0.10 95 1010.6
20260507052747 18 59 4.8 4.8 0.00 0.10 0.10 95 1010.9
20260507052243 18 59 1.6 4.8 0.00 0.10 0.10 95 1011.0
20260507051741 18 68 3.2 6.4 0.00 0.10 0.10 95 1010.7
20260507051237 18 17 1.6 3.2 0.00 0.10 0.10 95 1010.5
20260507050734 18 13 0.0 1.6 0.00 0.10 0.10 95 1010.4
20260507050231 18 35 1.6 4.8 0.00 0.10 0.10 94 1010.4
20260507045728 18 39 3.2 3.2 0.00 0.10 0.10 94 1010.7
20260507045224 18 60 0.0 3.2 0.00 0.10 0.10 94 1010.6
20260507044721 18 99 0.0 3.2 0.00 0.10 0.10 94 1010.8
20260507044218 18 92 1.6 3.2 0.00 0.10 0.10 94 1010.8
20260507043714 18 177 1.6 1.6 0.00 0.10 0.10 94 1010.3
20260507043211 18 299 0.0 0.0 0.00 0.10 0.10 94 1010.1
20260507042707 18 302 0.0 0.0 0.00 0.10 0.10 93 1009.6
20260507042202 18 263 3.2 4.8 0.13 0.10 0.10 92 1009.6
20260507041700 18 341 0.0 0.0 0.18 0.08 0.08 92 1011.0
20260507041156 18 49 1.6 3.2 0.30 0.08 0.08 91 1011.1
20260507040653 18 65 1.6 4.8 0.18 0.03 0.03 91 1011.3
20260507040149 18 10 1.6 3.2 0.18 0.00 0.00 91 1011.4
20260507035646 18 64 3.2 6.4 0.30 0.28 0.28 91 1011.7
20260507035142 18 66 1.6 3.2 0.13 0.25 0.25 91 1011.6
20260507034639 18 30 1.6 6.4 0.00 0.23 0.23 91 1011.6
20260507034136 18 92 1.6 3.2 0.18 0.23 0.23 91 1011.7
20260507033634 18 28 3.2 3.2 0.18 0.23 0.23 90 1011.7
20260507033131 18 33 1.6 3.2 0.00 0.20 0.20 90 1011.3
20260507032629 18 61 1.6 3.2 0.00 0.20 0.20 89 1011.4
20260507032125 18 22 1.6 3.2 0.00 0.20 0.20 88 1011.0
20260507031621 18 18 0.0 0.0 0.00 0.20 0.20 87 1010.9
20260507031118 18 18 0.0 1.6 0.00 0.20 0.20 87 1010.9
20260507030615 18 20 0.0 1.6 0.00 0.20 0.20 86 1011.0
20260507030113 19 21 1.6 1.6 0.00 0.20 0.20 85 1010.9